"Time","Temp","Dewpoint","Humidity","Pressure","Direction","Speed","Gust","Precip","PrecipRate"
"00:04:57","70.8","69.9","97","30.10","11","0","0","0.00","0.00"
"00:09:59","70.8","69.9","97","30.10","11","0","0","0.00","0.00"
"00:14:57","70.7","69.5","96","30.10","11","0","0","0.00","0.00"
"00:19:58","70.6","69.5","96.4","30.10","11","0","0","0.00","0.00"
"00:24:58","70.6","69.7","97","30.10","11","0","0","0.00","0.00"
"00:29:55","70.6","69.7","97","30.10","11","0","0","0.00","0.00"
"00:34:57","70.6","69.7","97","30.09","11","0","0","0.00","0.00"
"00:39:58","70.5","69.6","97","30.09","11","0","0","0.00","0.00"
"00:44:57","70.5","69.6","97","30.09","11","0","0","0.00","0.00"
"00:49:58","70.4","69.5","97","30.09","11","0","0","0.00","0.00"
"00:54:56","70.3","69.3","96.7","30.09","11","0","0","0.00","0.00"
"00:59:59","70.2","69.3","96.9","30.09","11","0","0","0.00","0.00"
"01:04:58","70.1","69.2","97","30.08","11","0","0","0.00","0.00"
"01:09:56","70.1","69.2","97","30.08","11","0","0","0.00","0.00"
"01:14:58","70","69.1","97","30.08","11","0","0","0.00","0.00"
"01:19:56","69.9","69","97","30.07","11","0","0","0.00","0.00"
"01:24:57","69.9","69","97","30.07","11","0","0","0.00","0.00"
"01:29:57","70","69.1","97","30.07","11","0","0","0.00","0.00"
"01:34:59","70","69.1","97","30.07","11","0","0","0.00","0.00"
"01:39:56","70","69.1","97","30.07","11","0","0","0.00","0.00"
"01:44:58","70","69.1","97","30.07","11","0","0","0.00","0.00"
"01:49:59","70","69.1","97","30.06","11","0","0","0.00","0.00"
"01:54:57","69.9","69","97","30.06","11","0","0","0.00","0.00"
"01:59:56","69.9","69","97","30.06","11","0","0","0.00","0.00"
"02:04:58","69.8","68.9","97","30.05","11","0","0","0.00","0.00"
"02:09:58","69.8","68.9","97","30.05","11","0","0","0.00","0.00"
"02:14:59","69.7","68.8","97","30.05","11","0","0","0.00","0.00"
"02:19:57","69.6","68.7","97","30.05","11","0","0","0.00","0.00"
"02:24:58","69.6","68.7","97","30.05","11","0","0","0.00","0.00"
"02:29:58","69.5","68.6","97","30.05","11","0","0","0.00","0.00"
"02:34:56","69.4","68.5","97","30.05","11","0","0","0.00","0.00"
"02:39:58","69.5","68.6","97","30.05","11","0","0","0.00","0.00"
"02:44:58","69.6","68.7","97","30.05","11","0","0","0.00","0.00"
"02:49:58","69.6","68.7","97","30.05","11","0","0","0.00","0.00"
"02:54:57","69.5","68.6","97","30.05","11","0","0","0.00","0.00"
"02:59:59","69.5","68.6","97","30.05","11","0","0","0.00","0.00"
"03:04:58","69.5","68.6","97","30.04","11","0","0","0.00","0.00"
"03:09:57","69.4","68.5","97","30.04","11","0","0","0.00","0.00"
"03:14:59","69.4","68.5","97","30.05","11","0","0","0.00","0.00"
"03:19:59","69.3","68.4","97","30.05","11","0","0","0.00","0.00"
"03:24:59","69.3","68.4","97","30.05","11","0","0","0.00","0.00"
"03:29:59","69.3","68.4","97","30.05","11","0","0","0.00","0.00"
"03:34:56","69.2","68.3","97","30.05","11","0","0","0.00","0.00"
"03:39:56","69.2","68.3","97","30.05","11","0","0","0.00","0.00"
"03:44:58","69.2","68.3","97","30.05","11","0","0","0.00","0.00"
"03:49:58","69.1","68.2","97","30.05","11","0","0","0.00","0.00"
"03:54:59","69.1","68.2","97","30.05","11","0","0","0.00","0.00"
"03:59:59","69","68.1","97","30.05","11","0","0","0.00","0.00"
"04:04:58","69","68.1","97","30.04","11","0","0","0.00","0.00"
"04:09:57","69","68.1","97","30.04","11","0","0","0.00","0.00"
"04:14:57","69","68.1","97","30.05","11","0","0","0.00","0.00"
"04:19:56","68.9","68","97","30.05","11","0","0","0.00","0.00"
"04:24:57","68.8","67.9","97","30.05","11","0","0","0.00","0.00"
"04:29:58","68.8","67.9","97","30.05","11","0.3","2.3","0.00","0.00"
"04:34:59","68.8","67.9","97","30.05","11","0.5","2.3","0.00","0.00"
"04:39:57","68.8","67.9","97","30.05","11","0","0","0.00","0.00"
"04:44:59","68.8","67.9","97","30.05","11","0","0","0.00","0.00"
"04:49:59","68.7","67.8","97","30.04","11","0","0","0.00","0.00"
"04:54:59","68.6","67.7","97","30.04","11","0","0","0.00","0.00"
"04:59:55","68.6","67.8","97.4","30.04","11","0","0","0.00","0.00"
"05:04:58","68.6","67.9","97.6","30.04","11","0","0","0.00","0.00"
"05:09:58","68.5","67.9","98","30.04","11","0","0","0.00","0.00"
"05:14:56","68.5","67.8","97.5","30.05","11","0","0","0.00","0.00"
"05:19:57","68.4","67.5","97","30.05","11","0","0","0.00","0.00"
"05:24:56","68.3","67.4","97","30.05","11","0","0","0.00","0.00"
"05:29:56","68.3","67.4","97","30.05","11","0","0","0.00","0.00"
"05:34:59","68.2","67.3","97","30.04","11","0","0","0.00","0.00"
"05:39:58","68.2","67.3","97","30.04","11","0","0","0.00","0.00"
"05:44:58","68.2","67.5","97.7","30.05","11","0","0","0.00","0.00"
"05:49:59","68.2","67.4","97.2","30.05","11","0","0","0.00","0.00"
"05:54:57","68.2","67.4","97.3","30.05","11","0","0","0.00","0.00"
"05:59:57","68.2","67.6","98","30.05","11","0","0","0.00","0.00"
"06:04:56","68.2","67.5","97.6","30.05","11","0","0","0.00","0.00"
"06:09:56","68.2","67.5","97.8","30.05","11","0","0","0.00","0.00"
"06:14:59","68.2","67.3","97","30.05","11","0","0","0.00","0.00"
"06:19:58","68.1","67.4","97.7","30.05","11","0","0","0.00","0.00"
"06:24:59","68.1","67.3","97.6","30.05","11","0","0","0.00","0.00"
"06:29:59","68","67.1","97.2","30.05","11","0","0","0.00","0.00"
"06:34:57","68","67.4","98","30.05","11","0","0","0.00","0.00"
"06:39:59","68","67.4","98","30.05","11","0","0","0.00","0.00"
"06:44:57","68.1","67.5","98","30.05","11","0","0","0.00","0.00"
"06:49:59","68.1","67.5","98","30.05","11","0","0","0.00","0.00"
"06:54:57","68.2","67.6","98","30.05","11","0","0","0.00","0.00"
"06:59:58","68.2","67.6","98","30.06","11","0","0","0.00","0.00"
"07:04:58","68.2","67.6","98","30.06","11","0","0","0.00","0.00"
"07:09:57","68.4","67.8","98","30.06","11","0","0","0.00","0.00"
"07:14:58","68.6","68","98","30.06","11","0","0","0.00","0.00"
"07:19:57","68.9","68.3","98","30.06","11","0","0","0.00","0.00"
"07:24:58","69.3","68.9","98.8","30.06","11","0","0","0.00","0.00"
"07:29:59","69.6","69","98.2","30.07","11","0","0","0.00","0.00"
"07:34:57","69.9","69.5","98.8","30.07","11","0","0","0.00","0.00"
"07:39:58","70.1","69.6","98.5","30.07","11","0","0","0.00","0.00"
"07:44:59","70.2","69.6","98","30.08","13","0","0","0.00","0.00"
"07:49:56","70.4","69.8","98","30.08","50","0","1","0.00","0.00"
"07:54:56","70.7","70.3","98.5","30.08","50","0.3","2.3","0.00","0.00"
"07:59:58","71.1","70.5","98","30.08","50","0.1","1.2","0.00","0.00"
"08:04:56","71.2","70.6","98","30.08","50","0.6","2.3","0.00","0.00"
"08:09:59","71.3","70.7","98","30.08","50","0.2","1.2","0.00","0.00"
"08:14:56","71.4","70.8","98","30.08","50","0","1","0.00","0.00"
"08:19:57","71.6","71","98","30.08","50","0.3","1.2","0.00","0.00"
"08:24:59","71.9","71.3","98","30.08","51","0.7","2.3","0.00","0.00"
"08:29:57","72.2","71.3","97.3","30.09","52","0.6","2.3","0.00","0.00"
"08:34:57","72.4","71.5","97","30.09","52","0","1.2","0.00","0.00"
"08:39:59","72.8","71.8","97","30.09","52","0","0","0.00","0.00"
"08:44:57","73.2","72.1","96.3","30.09","51","0","0","0.00","0.00"
"08:49:56","73.6","72.3","95.6","30.09","51","0","0","0.00","0.00"
"08:54:57","74.1","72.3","94.1","30.09","51","0","0","0.00","0.00"
"08:59:58","74.4","72.6","94","30.09","83","0","0","0.00","0.00"
"09:04:58","74.8","72.6","92.9","30.09","83","0","0","0.00","0.00"
"09:09:57","75.2","72.7","92","30.09","82","0","0","0.00","0.00"
"09:14:59","75.7","72.8","90.9","30.09","82","0","0","0.00","0.00"
"09:19:55","76.1","73","90","30.09","82","0","0","0.00","0.00"
"09:24:56","76.7","73.6","90.2","30.09","82","0","0","0.00","0.00"
"09:29:58","77.4","74","89.4","30.09","82","0","0","0.00","0.00"
"09:34:59","78.1","74.2","87.9","30.08","88","0","0","0.00","0.00"
"09:39:57","78.6","74.1","85.9","30.08","88","0","0","0.00","0.00"
"09:44:58","79.4","74.7","85.6","30.08","89","0","0","0.00","0.00"
"09:49:58","80.2","75.2","84.7","30.08","144","0","0","0.00","0.00"
"09:54:57","81.1","75.4","83.1","30.08","144","0","0","0.00","0.00"
"09:59:59","81.5","75.4","81.7","30.09","144","0","0","0.00","0.00"
"10:04:56","81.8","75.1","80.2","30.09","144","0","0","0.00","0.00"
"10:09:56","82.3","75.7","80.7","30.09","144","0","0","0.00","0.00"
"10:14:58","83","76.2","80","30.09","144","0","0","0.00","0.00"
"10:19:57","83.6","76.4","79","30.07","144","0","0","0.00","0.00"
"10:24:56","84.1","75.8","76.4","30.07","144","0","0","0.00","0.00"
"10:29:56","84.6","76.4","76.5","30.07","144","0","0","0.00","0.00"
"10:34:57","85.2","76.7","75.7","30.06","119","0","0","0.00","0.00"
"10:39:57","85.8","76.1","72.8","30.06","119","0","0","0.00","0.00"
"10:44:57","86.3","76.8","73.4","30.06","145","0","2.3","0.00","0.00"
"10:49:56","86.9","76.7","71.9","30.06","145","0","2.3","0.00","0.00"
"10:54:57","87.5","76.6","70.3","30.06","167","0.4","4","0.00","0.00"
"10:59:55","88.1","76","67.7","30.06","157","0.6","3.5","0.00","0.00"
"11:04:58","88.8","75.9","66","30.05","181","0.8","4","0.00","0.00"
"11:09:57","89.3","75.1","63.2","30.05","199","0.8","4","0.00","0.00"
"11:14:56","89.9","75.9","63.6","30.06","181","1.8","5","0.00","0.00"
"11:19:59","90.3","75.7","62.5","30.06","242","0.1","3","0.00","0.00"
"11:24:58","90.6","75.5","61.5","30.06","257","1.5","4","0.00","0.00"
"11:29:58","90.9","75","59.9","30.06","256","2.4","7","0.00","0.00"
"11:34:57","91.1","75","59.5","30.06","224","1.8","5","0.00","0.00"
"11:39:59","91.3","75","59.1","30.06","224","1.8","4","0.00","0.00"
"11:44:56","91.6","75.7","60","30.06","188","2.6","7","0.00","0.00"
"11:49:59","91.7","74.8","58","30.06","247","2.7","6","0.00","0.00"
"11:54:56","91.9","75.5","59.1","30.06","200","1.2","4.6","0.00","0.00"
"11:59:59","91.9","75.5","58.9","30.06","219","1.1","6","0.00","0.00"
"12:04:57","92.1","76.3","60.3","30.06","246","1.6","6","0.00","0.00"
"12:09:56","92","76.3","60.3","30.06","214","1.7","4","0.00","0.00"
"12:14:29","92.3","77.2","61.6","30.06","205","2.3","5","0.00","0.00"
"12:24:56","93","76.5","58.9","30.06","204","2.2","6","0.00","0.00"
"12:29:59","93","77.1","60.1","30.06","220","2.4","5.8","0.00","0.00"
"12:34:59","93.1","76.6","59.1","30.05","206","2.9","10.4","0.00","0.00"
"12:39:58","93.2","76.9","59.5","30.05","176","2.2","6","0.00","0.00"
"12:44:56","93.5","76.8","58.5","30.05","210","1.1","5.8","0.00","0.00"
"12:49:57","93.7","76.8","58.2","30.05","207","2.9","7","0.00","0.00"
"12:54:57","93.7","75.7","56.1","30.05","187","2.3","6.9","0.00","0.00"
"12:59:59","93.7","76.6","57.7","30.05","184","0.4","3.5","0.00","0.00"
"13:04:56","94","76.6","57.3","30.05","299","1.5","5","0.00","0.00"
"13:09:59","94.5","76.3","55.9","30.05","224","2.3","9.2","0.00","0.00"
"13:14:59","94.4","76.1","55.8","30.05","271","0.9","4","0.00","0.00"
"13:19:50","94.5","76.8","56.7","30.04","213","1.9","5","0.00","0.00"
"13:24:58","94.9","77","56.4","30.04","240","1.6","4","0.00","0.00"
"13:39:56","94.8","77.2","57","30.03","272","1.2","5","0.00","0.00"
"13:54:57","95.9","76.4","53.8","30.03","269","1.5","6","0.00","0.00"
"14:29:53","97.2","75.2","49.6","30.02","259","2.7","6","0.00","0.00"
"14:44:41","97.1","75.4","50.1","30.00","220","2.2","5","0.00","0.00"
"14:49:56","97.4","75.1","49.2","29.99","196","2.8","7","0.00","0.00"
"14:59:57","97.6","75","48.8","29.99","198","3","11.5","0.00","0.00"
"15:44:53","89.3","71.2","55.3","30.02","240","8.2","20","0.00","0.00"
"16:13:39","77.9","72.1","82.1","30.02","329","3.9","10.4","0.01","0.01"
"17:39:59","75.8","71.4","86.3","30.05","156","0.9","4","0.02","0.01"
"17:44:58","75.6","72.5","90","30.08","156","1.2","2.3","0.02","0.01"
"17:49:58","75.6","72.3","89.4","30.08","156","0.8","3","0.02","0.01"
"17:54:58","75.4","71.9","89","30.08","129","1.5","7","0.02","0.01"
"17:59:58","75.2","71.7","89","30.08","349","1.8","6.9","0.02","0.01"
"18:04:58","74.9","71.4","89","30.08","349","0.1","2.3","0.02","0.01"
"18:09:57","74.8","71.7","90","30.08","329","0.5","3","0.03","0.02"
"18:14:59","74.7","71.7","90.3","30.08","231","1.1","4","0.03","0.02"
"18:19:56","74.5","72","91.8","30.06","231","0.6","2.3","0.03","0.02"
"18:24:56","74.5","72","92","30.06","231","0","1.2","0.03","0.02"
"18:29:57","74.4","72.1","92.5","30.06","231","0.2","2","0.03","0.01"
"18:34:56","74.3","72","92.5","30.05","231","0.4","2.3","0.03","0.01"
"18:39:58","74.3","71.8","92","30.05","231","0","0","0.04","0.02"
"18:44:59","74.2","71.9","92.7","30.05","231","0","0","0.04","0.02"
"18:49:57","74.2","72.2","93.5","30.04","231","0","0","0.04","0.02"
"18:54:58","74.2","72.4","94","30.04","231","0","0","0.04","0.02"
"18:59:57","74.2","72.4","94","30.04","231","0","0","0.04","0.02"
"19:04:58","74","72.2","94","30.03","231","0","0","0.04","0.02"
"19:09:57","73.9","72.1","94","30.03","231","0","0","0.04","0.02"
"19:14:59","73.9","72.3","94.7","30.03","231","0","0","0.04","0.01"
"19:19:59","74","72.5","95","30.03","231","0.4","2.3","0.04","0.01"
"19:24:57","74","72.4","94.7","30.03","231","0.5","3","0.04","0.01"
"19:29:58","73.9","72.1","94","30.03","232","0.2","2","0.04","0.01"
"19:34:59","73.8","72.1","94.5","30.03","230","1.5","3.5","0.04","0.01"
"19:39:58","73.7","71.9","94","30.03","228","0.7","3.5","0.04","0.01"
"19:44:56","73.6","71.8","94","30.03","228","0.3","2.3","0.04","0.00"
"19:49:59","73.4","71.6","94","30.02","228","0","0","0.04","0.00"
"19:54:56","73.3","71.5","94","30.02","229","0","0","0.04","0.00"
"19:59:57","73.4","71.7","94.3","30.04","236","0","0","0.04","0.00"
"20:04:56","73.5","72","95","30.04","236","0","0","0.04","0.00"
"20:09:59","73.6","72.1","95","30.04","236","0","0","0.04","0.00"
"20:14:57","73.6","72.1","95","30.05","236","0","0","0.04","0.00"
"20:19:56","73.5","72","95","30.05","236","0","0","0.04","0.00"
"20:24:57","73.5","72","95","30.05","236","0","0","0.04","0.00"
"20:29:57","73.4","71.9","95","30.06","236","0","0","0.04","0.00"
"20:34:58","73.3","71.8","95","30.06","236","0","0","0.04","0.00"
"20:39:57","73.4","71.9","95","30.06","258","0.2","3","0.04","0.00"
"20:44:59","73.4","71.9","95","30.07","260","0.6","2.3","0.04","0.00"
"20:49:57","73.5","72","95","30.07","261","0.3","2.3","0.04","0.00"
"20:54:56","73.4","71.9","95","30.07","261","0.2","2.3","0.04","0.00"
"20:59:56","73.3","71.8","95","30.07","261","0.4","2.3","0.04","0.00"
"21:04:58","73.3","71.8","95","30.07","261","0","2.3","0.04","0.00"
"21:09:57","73.2","71.7","95","30.07","261","0","0","0.04","0.00"
"21:14:56","73.2","71.7","95","30.07","261","0.3","1.2","0.04","0.00"
"21:19:58","73.2","71.7","95.3","30.07","261","0.1","1.2","0.04","0.00"
"21:24:59","73.2","72","96","30.07","261","0","0","0.04","0.00"
"21:29:58","73.1","71.7","95.4","30.08","261","0","0","0.04","0.00"
"21:34:59","73.1","71.6","95","30.08","261","0","1.2","0.04","0.00"
"21:39:58","73.1","71.7","95.3","30.08","261","0.1","1.2","0.04","0.00"
"21:44:57","73.1","71.9","96","30.09","261","0","1.2","0.04","0.00"
"21:49:57","73.1","71.9","96","30.09","261","0","0","0.04","0.00"
"21:54:57","73.1","71.9","96","30.09","261","0","0","0.04","0.00"
"21:59:56","73.1","71.9","96","30.09","261","0","0","0.04","0.00"
"22:04:59","73.1","71.9","96","30.09","261","0","0","0.04","0.00"
"22:09:59","73.1","71.9","96","30.09","261","0","0","0.04","0.00"
"22:14:57","73.1","71.9","96","30.09","261","0","0","0.04","0.00"
"22:19:58","73.1","71.9","96","30.09","261","0","0","0.04","0.00"
"22:24:57","73.1","71.9","96","30.09","261","0","0","0.04","0.00"
"22:29:59","73.1","71.9","96","30.09","261","0","0","0.04","0.00"
"22:34:56","73.1","71.9","96","30.09","261","0","0","0.04","0.00"
"22:39:58","73.1","71.9","96","30.09","260","0","0","0.04","0.00"
"22:44:58","73.1","71.9","96","30.09","237","0.9","3.5","0.04","0.00"
"22:49:59","73.1","71.9","96","30.07","180","0.8","4","0.04","0.00"
"22:54:58","73","71.8","96","30.07","155","1.5","4","0.04","0.00"
"22:59:59","73","71.8","96","30.07","157","0.2","1.2","0.04","0.00"
"23:04:58","73.1","71.9","96","30.07","157","0.8","2.3","0.04","0.00"
"23:09:56","73.1","71.9","96","30.07","156","0.3","2.3","0.04","0.00"
"23:14:56","73.1","71.9","96","30.07","156","0.2","2","0.04","0.00"
"23:19:59","73","71.8","96","30.06","156","0","0","0.04","0.00"
"23:24:59","73","71.8","96","30.06","156","0","0","0.04","0.00"
"23:29:57","73","71.8","96","30.06","157","0","3","0.04","0.00"
"23:34:57","73","71.8","96","30.05","157","1.2","3.5","0.04","0.00"
"23:39:58","73","71.8","96","30.05","157","1.2","2.3","0.04","0.00"
"23:44:56","72.9","71.7","96","30.06","157","1.1","3.5","0.04","0.00"
"23:49:59","72.9","71.7","96","30.06","157","0.8","2.3","0.04","0.00"
"23:54:56","72.9","71.7","96","30.06","157","0.9","2.3","0.04","0.00"
"23:59:56","73","71.8","96","30.06","157","0.4","2.3","0.04","0.00"
